Regional Weather Roundup
Issued by NWS

Home | Current Version | Previous Version | Graphics & Text | Print | Product List | Glossary On
Versions: 1 2 3 4 5 6 7 8 9 10 11 12 13 14 15 16 17 18 19 20 21 22 23 24 25 26 27 28 29 30 31 32 33 34 35 36 37 38 39 40 41 42 43 44 45 46 47 48 49 50
000
ASUS45 KSLC 280010
RWRUT

UTAH REGIONAL WEATHER ROUNDUP
NATIONAL WEATHER SERVICE SALT LAKE CITY UT
600 PM MDT MON JUL 27 2015

UTZ001>011-023>025-280100-

NORTHERN UTAH

CITY           SKY/WX    TMP DP  RH WIND       PRES   REMARKS
BRIGHAM CITY   PTSUNNY   72  41  32 NW3       30.07R
HILL AFB       SUNNY     73  39  28 NW12      30.08S
LOGAN            N/A    N/A N/A N/A MISG      30.07R
OGDEN          SUNNY     75  39  27 NW10      30.06S
PROVO AIRPORT  MOSUNNY   77  43  29 NW17G23   30.03
SALT LAKE CITY MOSUNNY   75  39  27 N14G22    30.05R
VERNAL         SUNNY     85  25  11 W24G37    29.90R
WENDOVER       SUNNY     81  30  16 NW21G28   30.04R
HEBER CITY     SUNNY     77  28  16 W17G24    30.07R
WEST JORDAN    SUNNY     73  41  31 N14G22    30.07R

$$

UTZ012>022-026-027-280100-

SOUTHERN/CENTRAL UTAH

CITY           SKY/WX    TMP DP  RH WIND       PRES   REMARKS
BLANDING       SUNNY     88  26  10 SW13G18   30.09S
BRYCE CANYON   SUNNY     78  23  13 W17G23    30.18F
CEDAR CITY     SUNNY     86  16   7 S12       30.03S
DELTA          SUNNY     83  30  14 NW15      29.99S
HANKSVILLE     SUNNY     97  27   8 SW16      29.87R HX  90
MILFORD        SUNNY     91  27  10 W10G30    29.94S
MOAB/CYNLANDS  SUNNY     95  20   6 SW20G32   29.84S
PRICE          SUNNY     85  29  13 W17G32    30.00R
ST GEORGE      CLEAR     97  32  10 W16       29.85F HX  91

$$

REGIONAL REPORTS     COLORADO/ARIZONA

CITY           SKY/WX    TMP DP  RH WIND       PRES   REMARKS
CRAIG, CO      MOSUNNY   85  25  11 SW22G35   29.96S
GRAND JUNCTION SUNNY     92  23   8 W17G26    29.88R
RIFLE          SUNNY     91  28  10 W24G31    29.92S
MONTROSE       SUNNY     89  33  13 SW15G23   30.01S
CORTEZ         SUNNY     88  28  11 SW15G22   30.04S
PAGE, AZ       SUNNY     97  21   6 W10       29.89F HX  90
GRAND CANYON   SUNNY     84  14   7 W15G28    30.14S
KINGMAN        SUNNY     95  15   5 SW14G23   29.92F
FLAGSTAFF      SUNNY     78  41  26 W15       30.19F

$$

REGIONAL REPORTS    NEVADA/IDAHO/WYOMING

CITY           SKY/WX    TMP DP  RH WIND       PRES   REMARKS
LAS VEGAS, NV  SUNNY    101  23   6 NE3       29.73F HX  94
ELY            SUNNY     79  20  11 NW10      30.13R
ELKO           SUNNY     75  20  12 W22G29    30.12S
POCATELLO, ID  MOSUNNY   68  32  26 W33G43    30.07R
BURLEY         SUNNY     68  34  28 W15G32    30.08R
EVANSTON, WY   MOSUNNY   64  34  32 W24G36    30.16R
ROCK SPRINGS   SUNNY     71  35  26 W29G38    30.06R
KEMMERER       SUNNY     61  32  33 W29G43    30.14R

$$


USA.gov is the U.S. government's official web portal to all federal, state and local government web resources and services.